Simultaneous Nadir Overpasses (SNOs) Predictions

Prediction of SNOs between AQUA and NPP Satellite Orbit:

Table of predicted SNOs for the next 14.0 days since TLE Epoch: 7/1/2013
Index Date (AQUA) Time (AQUA) Lat,Lon (AQUA) SZA (AQUA ) Date (NPP) Time (NPP) Lat,Lon (NPP) SZA (NPP ) Distance(km) Time Diff (sec)
1 07/03/2013 00:27:16 75.25, 50.09 75.84 07/03/2013 00:26:11 75.25, 50.16 75.87 2.07 65
2 07/03/2013 01:16:24 -76.06,-139.90 105.11 07/03/2013 01:16:40 -76.05,-139.97 105.11 2.23 16
3 07/05/2013 14:11:06 -75.58, 25.04 104.31 07/05/2013 14:10:45 -75.57, 24.98 104.28 1.73 21
4 07/05/2013 15:00:04 76.74,-163.62 74.32 07/05/2013 15:01:03 76.74,-163.58 74.26 1.00 59
5 07/08/2013 03:04:48 -75.66,-168.16 104.12 07/08/2013 03:04:38 -75.65,-168.25 104.09 2.58 10
6 07/08/2013 03:53:48 76.69, 2.77 74.67 07/08/2013 03:54:59 76.68, 2.71 74.63 1.85 71
7 07/10/2013 15:08:19 75.66,-169.04 76.20 07/10/2013 15:07:45 75.67,-168.97 76.21 1.78 34
8 07/10/2013 15:57:26 -76.42, 0.97 104.69 07/10/2013 15:58:15 -76.41, 0.87 104.71 2.83 49
9 07/13/2013 03:11:04 -75.71,-169.57 103.51 07/13/2013 03:10:55 -75.70,-169.64 103.49 2.34 9




NCC Satellite Simultaneous Nadir Overpasses (SNOs) Prediction Service
